,,PressureMeas_1m,,PRMeasQMR101_1,,RHStat155_1m_1,,SRMeasQMS101R_1m,,TAStat155_1m_1,,GenWind_1,,GenWind_1,
2019-04-26, 07:00:06,VALID,916.083,VALID,0.0,VALID,98.587,VALID,33.615,VALID,20.478,INVALID,360.0,VALID,0.0,
2019-04-26, 07:01:06,VALID,916.097,VALID,0.0,VALID,98.595,VALID,35.478,VALID,20.493,INVALID,360.0,VALID,0.0,
2019-04-26, 07:02:06,VALID,916.099,VALID,0.0,VALID,98.704,VALID,36.992,VALID,20.567,INVALID,360.0,VALID,0.0,
2019-04-26, 07:03:06,VALID,916.118,VALID,0.0,VALID,98.707,VALID,38.496,VALID,20.577,INVALID,360.0,VALID,0.0,
2019-04-26, 07:04:06,VALID,916.138,VALID,0.0,VALID,98.698,VALID,38.512,VALID,20.568,INVALID,360.0,VALID,0.0,
2019-04-26, 07:05:06,VALID,916.133,VALID,0.0,VALID,98.634,VALID,40.671,VALID,20.569,INVALID,360.0,VALID,0.0,
2019-04-26, 07:06:06,VALID,916.14,VALID,0.0,VALID,98.594,VALID,42.23,VALID,20.582,INVALID,360.0,VALID,0.0,
2019-04-26, 07:07:06,VALID,916.159,VALID,0.0,VALID,98.628,VALID,41.697,VALID,20.617,INVALID,360.0,VALID,0.0,
2019-04-26, 07:08:06,VALID,916.186,VALID,0.0,VALID,98.61,VALID,39.517,VALID,20.641,INVALID,360.0,VALID,0.0,
2019-04-26, 07:09:06,VALID,916.19,VALID,0.0,VALID,98.613,VALID,37.605,VALID,20.65,INVALID,360.0,VALID,0.0,
2019-04-26, 07:10:06,VALID,916.241,VALID,0.0,VALID,98.553,VALID,33.167,VALID,20.637,INVALID,360.0,VALID,0.0,
2019-04-26, 07:11:06,VALID,916.264,VALID,0.0,VALID,98.501,VALID,29.756,VALID,20.651,INVALID,360.0,VALID,0.0,
2019-04-26, 07:12:06,VALID,916.287,VALID,0.0,VALID,98.481,VALID,29.493,VALID,20.659,INVALID,360.0,VALID,0.0,
2019-04-26, 07:13:06,VALID,916.295,VALID,0.0,VALID,98.467,VALID,31.894,VALID,20.688,INVALID,360.0,VALID,0.0,
2019-04-26, 07:14:06,VALID,916.293,VALID,0.0,VALID,98.606,VALID,37.852,VALID,20.759,INVALID,360.0,VALID,0.0,
2019-04-26, 07:15:06,VALID,916.313,VALID,0.0,VALID,98.486,VALID,39.231,VALID,20.696,INVALID,360.0,VALID,0.0,
2019-04-26, 07:16:06,VALID,916.325,VALID,0.0,VALID,98.464,VALID,36.438,VALID,20.707,INVALID,360.0,VALID,0.0,
2019-04-26, 07:17:06,VALID,916.325,VALID,0.0,VALID,98.444,VALID,33.175,VALID,20.707,INVALID,360.0,VALID,0.0,
2019-04-26, 07:18:06,VALID,916.333,VALID,0.0,VALID,98.48,VALID,33.853,VALID,20.712,INVALID,360.0,VALID,0.0,
2019-04-26, 07:19:06,VALID,916.314,VALID,0.0,VALID,98.431,VALID,34.325,VALID,20.688,INVALID,360.0,VALID,0.0,
2019-04-26, 07:20:06,VALID,916.318,VALID,0.0,VALID,98.458,VALID,35.19,VALID,20.708,INVALID,360.0,VALID,0.0,
2019-04-26, 07:21:06,VALID,916.318,VALID,0.0,VALID,98.429,VALID,35.433,VALID,20.694,INVALID,360.0,VALID,0.0,
2019-04-26, 07:22:06,VALID,916.333,VALID,0.0,VALID,98.466,VALID,36.727,VALID,20.694,INVALID,360.0,VALID,0.0,
2019-04-26, 07:23:06,VALID,916.344,VALID,0.0,VALID,98.502,VALID,37.758,VALID,20.687,INVALID,360.0,VALID,0.0,
2019-04-26, 07:24:06,VALID,916.371,VALID,0.0,VALID,98.613,VALID,35.813,VALID,20.734,INVALID,360.0,VALID,0.0,
2019-04-26, 07:25:06,VALID,916.399,VALID,0.0,VALID,98.645,VALID,34.878,VALID,20.733,INVALID,360.0,VALID,0.0,
2019-04-26, 07:26:06,VALID,916.405,VALID,0.0,VALID,98.644,VALID,36.462,VALID,20.715,INVALID,360.0,VALID,0.0,
2019-04-26, 07:27:06,VALID,916.432,VALID,0.0,VALID,98.734,VALID,39.983,VALID,20.726,INVALID,360.0,VALID,0.0,
2019-04-26, 07:28:06,VALID,916.437,VALID,0.0,VALID,98.769,VALID,49.687,VALID,20.716,INVALID,360.0,VALID,0.0,
2019-04-26, 07:29:06,VALID,916.432,VALID,0.0,VALID,98.751,VALID,62.552,VALID,20.699,INVALID,360.0,VALID,0.0,
2019-04-26, 07:30:06,VALID,916.45,VALID,0.0,VALID,98.828,VALID,69.915,VALID,20.727,INVALID,360.0,VALID,0.0,
2019-04-26, 07:31:06,VALID,916.479,VALID,0.0,VALID,98.861,VALID,74.279,VALID,20.753,INVALID,360.0,VALID,0.0,
2019-04-26, 07:32:06,VALID,916.447,VALID,0.0,VALID,98.808,VALID,83.761,VALID,20.734,INVALID,360.0,VALID,0.0,
2019-04-26, 07:33:06,VALID,916.453,VALID,0.0,VALID,98.764,VALID,93.43,VALID,20.763,INVALID,360.0,VALID,0.0,
2019-04-26, 07:34:06,VALID,916.468,VALID,0.0,VALID,98.654,VALID,98.808,VALID,20.796,INVALID,360.0,VALID,0.0,
2019-04-26, 07:35:06,VALID,916.476,VALID,0.0,VALID,98.631,VALID,106.72,VALID,20.836,INVALID,360.0,VALID,0.0,
2019-04-26, 07:36:06,VALID,916.472,VALID,0.0,VALID,98.485,VALID,111.163,VALID,20.837,INVALID,360.0,VALID,0.0,
2019-04-26, 07:37:06,VALID,916.486,VALID,0.0,VALID,98.464,VALID,112.704,VALID,20.876,INVALID,360.0,VALID,0.0,
2019-04-26, 07:38:06,VALID,916.487,VALID,0.0,VALID,98.336,VALID,115.416,VALID,20.911,INVALID,360.0,VALID,0.0,
2019-04-26, 07:39:06,VALID,916.482,VALID,0.0,VALID,98.353,VALID,119.418,VALID,20.98,INVALID,360.0,VALID,0.0,
2019-04-26, 07:40:06,VALID,916.489,VALID,0.0,VALID,98.012,VALID,122.208,VALID,20.943,INVALID,360.0,VALID,0.0,
2019-04-26, 07:41:06,VALID,916.484,VALID,0.0,VALID,97.648,VALID,124.121,VALID,20.959,INVALID,360.0,VALID,0.0,
2019-04-26, 07:42:06,VALID,916.492,VALID,0.0,VALID,97.689,VALID,125.906,VALID,21.085,INVALID,360.0,VALID,0.0,
2019-04-26, 07:43:06,VALID,916.492,VALID,0.0,VALID,97.719,VALID,128.498,VALID,21.163,INVALID,360.0,VALID,0.0,
2019-04-26, 07:44:06,VALID,916.515,VALID,0.0,VALID,97.721,VALID,132.096,VALID,21.252,INVALID,360.0,VALID,0.0,
2019-04-26, 07:45:06,VALID,916.541,VALID,0.0,VALID,97.558,VALID,137.287,VALID,21.282,INVALID,360.0,VALID,0.0,
2019-04-26, 07:46:06,VALID,916.541,VALID,0.0,VALID,97.286,VALID,141.419,VALID,21.307,INVALID,360.0,VALID,0.0,
2019-04-26, 07:47:06,VALID,916.537,VALID,0.0,VALID,96.714,VALID,145.827,VALID,21.323,INVALID,360.0,VALID,0.0,
2019-04-26, 07:48:06,VALID,916.509,VALID,0.0,VALID,96.569,VALID,150.709,VALID,21.378,INVALID,360.0,VALID,0.0,
2019-04-26, 07:49:06,VALID,916.52,VALID,0.0,VALID,96.485,VALID,156.754,VALID,21.432,INVALID,360.0,VALID,0.0,
2019-04-26, 07:50:06,VALID,916.522,VALID,0.0,VALID,96.292,VALID,164.927,VALID,21.462,INVALID,360.0,VALID,0.0,
2019-04-26, 07:51:06,VALID,916.522,VALID,0.0,VALID,96.309,VALID,171.142,VALID,21.455,INVALID,360.0,VALID,0.0,
2019-04-26, 07:52:06,VALID,916.505,VALID,0.0,VALID,96.181,VALID,175.96,VALID,21.432,INVALID,360.0,VALID,0.0,
2019-04-26, 07:53:06,VALID,916.499,VALID,0.0,VALID,96.466,VALID,180.382,VALID,21.487,VALID,350.0,VALID,0.0,
2019-04-26, 07:54:06,VALID,916.493,VALID,0.0,VALID,96.212,VALID,182.771,VALID,21.536,INVALID,360.0,VALID,0.0,
2019-04-26, 07:55:06,VALID,916.468,VALID,0.0,VALID,95.988,VALID,185.048,VALID,21.575,INVALID,360.0,VALID,0.0,
2019-04-26, 07:56:06,VALID,916.445,VALID,0.0,VALID,95.375,VALID,187.352,VALID,21.565,INVALID,360.0,VALID,0.0,
2019-04-26, 07:57:06,VALID,916.451,VALID,0.0,VALID,95.452,VALID,189.928,VALID,21.561,INVALID,360.0,VALID,0.0,
2019-04-26, 07:58:06,VALID,916.45,VALID,0.0,VALID,95.949,VALID,191.604,VALID,21.6,INVALID,360.0,VALID,0.0,
2019-04-26, 07:59:06,VALID,916.441,VALID,0.0,VALID,96.906,VALID,195.397,VALID,21.691,INVALID,360.0,VALID,0.0,
2019-04-26, 08:00:06,VALID,916.444,VALID,0.0,VALID,97.18,VALID,199.01,VALID,21.756,INVALID,360.0,VALID,0.0,
2019-04-26, 08:01:06,VALID,916.467,VALID,0.0,VALID,96.52,VALID,200.719,VALID,21.695,INVALID,360.0,VALID,0.0,
2019-04-26, 08:02:06,VALID,916.453,VALID,0.0,VALID,96.162,VALID,207.097,VALID,21.681,INVALID,360.0,VALID,0.0,
2019-04-26, 08:03:06,VALID,916.461,VALID,0.0,VALID,95.864,VALID,211.554,VALID,21.62,INVALID,360.0,VALID,0.0,
2019-04-26, 08:04:06,VALID,916.489,VALID,0.0,VALID,95.828,VALID,208.56,VALID,21.559,INVALID,360.0,VALID,0.0,
2019-04-26, 08:05:06,VALID,916.475,VALID,0.0,VALID,96.124,VALID,217.354,VALID,21.53,INVALID,360.0,VALID,0.0,
2019-04-26, 08:06:06,VALID,916.466,VALID,0.0,VALID,96.136,VALID,225.449,VALID,21.52,INVALID,360.0,VALID,0.0,
2019-04-26, 08:07:06,VALID,916.493,VALID,0.0,VALID,95.728,VALID,232.336,VALID,21.491,INVALID,360.0,VALID,0.0,
2019-04-26, 08:08:06,VALID,916.485,VALID,0.0,VALID,95.453,VALID,237.378,VALID,21.434,INVALID,360.0,VALID,0.0,
2019-04-26, 08:09:06,VALID,916.489,VALID,0.0,VALID,95.925,VALID,255.359,VALID,21.453,INVALID,360.0,VALID,0.0,
2019-04-26, 08:10:06,VALID,916.501,VALID,0.0,VALID,96.399,VALID,273.83,VALID,21.481,INVALID,360.0,VALID,0.0,
2019-04-26, 08:11:06,VALID,916.502,VALID,0.0,VALID,96.518,VALID,292.697,VALID,21.503,INVALID,360.0,VALID,0.0,
2019-04-26, 08:12:06,VALID,916.508,VALID,0.0,VALID,96.064,VALID,330.85,VALID,21.484,INVALID,360.0,VALID,0.0,
2019-04-26, 08:13:06,VALID,916.513,VALID,0.0,VALID,96.298,VALID,385.802,VALID,21.548,INVALID,360.0,VALID,0.0,
2019-04-26, 08:14:06,VALID,916.531,VALID,0.0,VALID,95.865,VALID,403.898,VALID,21.565,INVALID,360.0,VALID,0.0,
2019-04-26, 08:15:06,VALID,916.552,VALID,0.0,VALID,96.273,VALID,333.479,VALID,21.729,INVALID,360.0,VALID,0.0,
2019-04-26, 08:16:06,VALID,916.556,VALID,0.0,VALID,95.225,VALID,347.865,VALID,21.787,INVALID,360.0,VALID,0.0,
2019-04-26, 08:17:06,VALID,916.573,VALID,0.0,VALID,94.847,VALID,353.99,VALID,21.894,INVALID,360.0,VALID,0.0,
2019-04-26, 08:18:06,VALID,916.59,VALID,0.0,VALID,94.068,VALID,366.069,VALID,21.895,INVALID,360.0,VALID,0.0,
2019-04-26, 08:19:06,VALID,916.615,VALID,0.0,VALID,93.64,VALID,407.007,VALID,21.876,INVALID,360.0,VALID,0.0,
2019-04-26, 08:20:06,VALID,916.627,VALID,0.0,VALID,93.622,VALID,453.797,VALID,21.833,INVALID,360.0,VALID,0.0,
2019-04-26, 08:21:06,VALID,916.638,VALID,0.0,VALID,94.5,VALID,534.872,VALID,21.891,INVALID,360.0,VALID,0.0,
2019-04-26, 08:22:06,VALID,916.656,VALID,0.0,VALID,94.654,VALID,528.114,VALID,22.009,INVALID,360.0,VALID,0.0,
2019-04-26, 08:23:06,VALID,916.678,VALID,0.0,VALID,93.732,VALID,571.251,VALID,22.165,INVALID,360.0,VALID,0.0,
2019-04-26, 08:24:06,VALID,916.694,VALID,0.0,VALID,92.54,VALID,579.595,VALID,22.341,INVALID,360.0,VALID,0.0,
2019-04-26, 08:25:06,VALID,916.714,VALID,0.0,VALID,92.557,VALID,582.998,VALID,22.437,INVALID,360.0,VALID,0.0,
2019-04-26, 08:26:06,VALID,916.726,VALID,0.0,VALID,92.691,VALID,603.875,VALID,22.449,INVALID,360.0,VALID,0.0,
2019-04-26, 08:27:06,VALID,916.736,VALID,0.0,VALID,92.428,VALID,601.035,VALID,22.463,INVALID,360.0,VALID,0.0,
2019-04-26, 08:28:06,VALID,916.741,VALID,0.0,VALID,91.83,VALID,594.639,VALID,22.546,INVALID,360.0,VALID,0.0,
2019-04-26, 08:29:06,VALID,916.747,VALID,0.0,VALID,91.783,VALID,544.488,VALID,22.69,INVALID,360.0,VALID,0.0,
2019-04-26, 08:30:06,VALID,916.767,VALID,0.0,VALID,91.672,VALID,529.421,VALID,22.888,INVALID,360.0,VALID,0.0,
2019-04-26, 08:31:06,VALID,916.747,VALID,0.0,VALID,92.177,VALID,562.01,VALID,23.044,INVALID,360.0,VALID,0.0,
2019-04-26, 08:32:06,VALID,916.751,VALID,0.0,VALID,90.355,VALID,532.386,VALID,23.096,INVALID,360.0,VALID,0.0,
2019-04-26, 08:33:06,VALID,916.767,VALID,0.0,VALID,89.13,VALID,462.597,VALID,22.936,INVALID,360.0,VALID,0.0,
2019-04-26, 08:34:06,VALID,916.76,VALID,0.0,VALID,91.093,VALID,448.179,VALID,22.882,INVALID,360.0,VALID,0.0,
2019-04-26, 08:35:06,VALID,916.787,VALID,0.0,VALID,91.835,VALID,398.707,VALID,22.914,INVALID,360.0,VALID,0.0,
2019-04-26, 08:36:06,VALID,916.791,VALID,0.0,VALID,91.502,VALID,365.016,VALID,23.002,INVALID,360.0,VALID,0.0,
2019-04-26, 08:37:06,VALID,916.778,VALID,0.0,VALID,90.891,VALID,358.323,VALID,22.989,INVALID,360.0,VALID,0.0,
2019-04-26, 08:38:06,VALID,916.799,VALID,0.0,VALID,90.404,VALID,326.808,VALID,22.942,INVALID,360.0,VALID,0.0,
2019-04-26, 08:39:06,VALID,916.797,VALID,0.0,VALID,90.333,VALID,308.354,VALID,22.899,INVALID,360.0,VALID,0.0,
2019-04-26, 08:40:06,VALID,916.819,VALID,0.0,VALID,90.135,VALID,286.936,VALID,22.834,INVALID,360.0,VALID,0.0,
2019-04-26, 08:41:06,VALID,916.816,VALID,0.0,VALID,91.111,VALID,267.691,VALID,22.701,INVALID,360.0,VALID,0.0,
2019-04-26, 08:42:06,VALID,916.834,VALID,0.0,VALID,91.788,VALID,262.835,VALID,22.534,INVALID,360.0,VALID,0.0,
2019-04-26, 08:43:06,VALID,916.82,VALID,0.0,VALID,92.533,VALID,261.354,VALID,22.485,INVALID,360.0,VALID,0.0,
2019-04-26, 08:44:06,VALID,916.823,VALID,0.0,VALID,92.937,VALID,252.179,VALID,22.511,INVALID,360.0,VALID,0.0,
2019-04-26, 08:45:06,VALID,916.83,VALID,0.0,VALID,92.078,VALID,230.833,VALID,22.453,INVALID,360.0,VALID,0.0,
2019-04-26, 08:46:06,VALID,916.83,VALID,0.0,VALID,93.718,VALID,214.864,VALID,22.489,INVALID,360.0,VALID,0.0,
2019-04-26, 08:47:06,VALID,916.845,VALID,0.0,VALID,93.429,VALID,200.274,VALID,22.571,INVALID,360.0,VALID,0.0,
2019-04-26, 08:48:06,VALID,916.848,VALID,0.0,VALID,92.46,VALID,190.06,VALID,22.533,INVALID,360.0,VALID,0.0,
2019-04-26, 08:49:06,VALID,916.838,VALID,0.0,VALID,91.942,VALID,185.453,VALID,22.369,INVALID,360.0,VALID,0.0,
2019-04-26, 08:50:06,VALID,916.819,VALID,0.0,VALID,93.249,VALID,187.039,VALID,22.285,INVALID,360.0,VALID,0.0,
2019-04-26, 08:51:06,VALID,916.803,VALID,0.0,VALID,93.777,VALID,188.525,VALID,22.349,INVALID,360.0,VALID,0.0,
2019-04-26, 08:52:06,VALID,916.805,VALID,0.0,VALID,93.772,VALID,185.511,VALID,22.381,INVALID,360.0,VALID,0.0,
2019-04-26, 08:53:06,VALID,916.799,VALID,0.0,VALID,93.357,VALID,182.34,VALID,22.395,INVALID,360.0,VALID,0.0,
2019-04-26, 08:54:06,VALID,916.786,VALID,0.0,VALID,93.073,VALID,186.472,VALID,22.41,INVALID,360.0,VALID,0.0,
2019-04-26, 08:55:06,VALID,916.775,VALID,0.0,VALID,92.914,VALID,193.711,VALID,22.435,INVALID,360.0,VALID,0.0,
2019-04-26, 08:56:06,VALID,916.776,VALID,0.0,VALID,93.601,VALID,198.584,VALID,22.438,INVALID,360.0,VALID,0.0,
2019-04-26, 08:57:06,VALID,916.776,VALID,0.0,VALID,94.058,VALID,209.029,VALID,22.446,INVALID,360.0,VALID,0.0,
2019-04-26, 08:58:06,VALID,916.754,VALID,0.0,VALID,93.578,VALID,225.418,VALID,22.466,INVALID,360.0,VALID,0.0,
2019-04-26, 08:59:06,VALID,916.778,VALID,0.0,VALID,93.164,VALID,246.205,VALID,22.459,INVALID,360.0,VALID,0.0,
2019-04-26, 09:00:06,VALID,916.764,VALID,0.0,VALID,93.459,VALID,265.595,VALID,22.424,INVALID,360.0,VALID,0.0,
2019-04-26, 09:01:06,VALID,916.754,VALID,0.0,VALID,93.648,VALID,272.155,VALID,22.394,INVALID,360.0,VALID,0.0,
2019-04-26, 09:02:06,VALID,916.756,VALID,0.0,VALID,94.149,VALID,285.907,VALID,22.421,INVALID,360.0,VALID,0.0,
2019-04-26, 09:03:06,VALID,916.751,VALID,0.0,VALID,92.939,VALID,277.934,VALID,22.42,INVALID,360.0,VALID,0.0,
2019-04-26, 09:04:06,VALID,916.737,VALID,0.0,VALID,92.806,VALID,281.758,VALID,22.506,INVALID,360.0,VALID,0.0,
2019-04-26, 09:05:06,VALID,916.719,VALID,0.0,VALID,92.873,VALID,260.79,VALID,22.512,INVALID,360.0,VALID,0.0,
2019-04-26, 09:06:06,VALID,916.705,VALID,0.0,VALID,93.062,VALID,263.564,VALID,22.448,INVALID,360.0,VALID,0.0,
2019-04-26, 09:07:06,VALID,916.689,VALID,0.0,VALID,92.745,VALID,264.857,VALID,22.357,INVALID,360.0,VALID,0.0,
2019-04-26, 09:08:06,VALID,916.69,VALID,0.0,VALID,93.297,VALID,257.119,VALID,22.308,INVALID,360.0,VALID,0.0,
2019-04-26, 09:09:06,VALID,916.662,VALID,0.0,VALID,93.835,VALID,257.238,VALID,22.314,INVALID,360.0,VALID,0.0,
2019-04-26, 09:10:06,VALID,916.657,VALID,0.0,VALID,93.227,VALID,266.82,VALID,22.279,INVALID,360.0,VALID,0.0,
2019-04-26, 09:11:06,VALID,916.654,VALID,0.0,VALID,93.66,VALID,284.966,VALID,22.301,INVALID,360.0,VALID,0.0,
2019-04-26, 09:12:06,VALID,916.648,VALID,0.0,VALID,93.533,VALID,288.321,VALID,22.323,INVALID,360.0,VALID,0.0,
2019-04-26, 09:13:06,VALID,916.639,VALID,0.0,VALID,93.956,VALID,297.048,VALID,22.345,INVALID,360.0,VALID,0.0,
2019-04-26, 09:14:06,VALID,916.639,VALID,0.0,VALID,93.356,VALID,273.562,VALID,22.339,INVALID,360.0,VALID,0.0,
2019-04-26, 09:15:06,VALID,916.625,VALID,0.0,VALID,93.246,VALID,261.122,VALID,22.314,INVALID,360.0,VALID,0.0,
2019-04-26, 09:16:06,VALID,916.612,VALID,0.0,VALID,93.337,VALID,264.623,VALID,22.252,INVALID,360.0,VALID,0.0,
2019-04-26, 09:17:06,VALID,916.622,VALID,0.0,VALID,94.116,VALID,267.479,VALID,22.215,INVALID,360.0,VALID,0.0,
2019-04-26, 09:18:06,VALID,916.606,VALID,0.0,VALID,94.278,VALID,269.242,VALID,22.196,INVALID,360.0,VALID,0.0,
2019-04-26, 09:19:06,VALID,916.586,VALID,0.0,VALID,94.08,VALID,262.701,VALID,22.177,INVALID,360.0,VALID,0.0,
2019-04-26, 09:20:06,VALID,916.572,VALID,0.0,VALID,94.09,VALID,262.145,VALID,22.193,INVALID,360.0,VALID,0.0,
2019-04-26, 09:21:06,VALID,916.547,VALID,0.0,VALID,94.41,VALID,269.235,VALID,22.262,INVALID,360.0,VALID,0.0,
2019-04-26, 09:22:06,VALID,916.536,VALID,0.0,VALID,93.395,VALID,271.849,VALID,22.356,INVALID,360.0,VALID,0.0,
2019-04-26, 09:23:06,VALID,916.518,VALID,0.0,VALID,92.611,VALID,276.769,VALID,22.356,INVALID,360.0,VALID,0.0,
2019-04-26, 09:24:06,VALID,916.515,VALID,0.0,VALID,93.033,VALID,276.055,VALID,22.384,INVALID,360.0,VALID,0.0,
2019-04-26, 09:25:06,VALID,916.502,VALID,0.0,VALID,93.247,VALID,276.677,VALID,22.421,INVALID,360.0,VALID,0.0,
2019-04-26, 09:26:06,VALID,916.507,VALID,0.0,VALID,93.473,VALID,287.834,VALID,22.528,INVALID,360.0,VALID,0.0,
2019-04-26, 09:27:06,VALID,916.492,VALID,0.0,VALID,93.857,VALID,280.041,VALID,22.739,INVALID,360.0,VALID,0.0,
2019-04-26, 09:28:06,VALID,916.478,VALID,0.0,VALID,92.634,VALID,258.766,VALID,22.943,INVALID,360.0,VALID,0.0,
2019-04-26, 09:29:06,VALID,916.46,VALID,0.0,VALID,92.378,VALID,265.825,VALID,23.092,INVALID,360.0,VALID,0.0,
2019-04-26, 09:30:06,VALID,916.436,VALID,0.0,VALID,91.399,VALID,283.869,VALID,23.234,INVALID,360.0,VALID,0.0,
2019-04-26, 09:31:06,VALID,916.404,VALID,0.0,VALID,91.006,VALID,292.968,VALID,23.309,INVALID,360.0,VALID,0.0,
2019-04-26, 09:32:06,VALID,916.367,VALID,0.0,VALID,89.298,VALID,297.493,VALID,23.249,INVALID,360.0,VALID,0.0,
2019-04-26, 09:33:06,VALID,916.341,VALID,0.0,VALID,89.866,VALID,298.481,VALID,23.032,INVALID,360.0,VALID,0.0,
2019-04-26, 09:34:06,VALID,916.32,VALID,0.0,VALID,90.906,VALID,299.415,VALID,23.036,INVALID,360.0,VALID,0.0,
2019-04-26, 09:35:06,VALID,916.302,VALID,0.0,VALID,90.604,VALID,295.6,VALID,23.149,INVALID,360.0,VALID,0.0,
2019-04-26, 09:36:06,VALID,916.297,VALID,0.0,VALID,90.304,VALID,294.411,VALID,23.269,INVALID,360.0,VALID,0.0,
2019-04-26, 09:37:06,VALID,916.32,VALID,0.0,VALID,90.041,VALID,292.046,VALID,23.372,INVALID,360.0,VALID,0.0,
2019-04-26, 09:38:06,VALID,916.321,VALID,0.0,VALID,89.429,VALID,289.746,VALID,23.419,INVALID,360.0,VALID,0.0,
2019-04-26, 09:39:06,VALID,916.336,VALID,0.0,VALID,89.441,VALID,287.647,VALID,23.413,INVALID,360.0,VALID,0.0,
2019-04-26, 09:40:06,VALID,916.33,VALID,0.0,VALID,89.279,VALID,288.836,VALID,23.419,INVALID,360.0,VALID,0.0,
2019-04-26, 09:41:06,VALID,916.328,VALID,0.0,VALID,90.053,VALID,290.922,VALID,23.304,INVALID,360.0,VALID,0.0,
2019-04-26, 09:42:06,VALID,916.31,VALID,0.0,VALID,90.734,VALID,293.259,VALID,23.295,INVALID,360.0,VALID,0.0,
2019-04-26, 09:43:06,VALID,916.3,VALID,0.0,VALID,89.337,VALID,295.66,VALID,23.357,INVALID,360.0,VALID,0.0,
2019-04-26, 09:44:06,VALID,916.307,VALID,0.0,VALID,89.461,VALID,299.716,VALID,23.399,INVALID,360.0,VALID,0.0,
2019-04-26, 09:45:06,VALID,916.318,VALID,0.0,VALID,89.525,VALID,304.74,VALID,23.519,INVALID,360.0,VALID,0.0,
2019-04-26, 09:46:06,VALID,916.301,VALID,0.0,VALID,88.514,VALID,309.496,VALID,23.612,INVALID,360.0,VALID,0.0,
2019-04-26, 09:47:06,VALID,916.296,VALID,0.0,VALID,88.498,VALID,314.871,VALID,23.671,INVALID,360.0,VALID,0.0,
2019-04-26, 09:48:06,VALID,916.305,VALID,0.0,VALID,88.467,VALID,322.207,VALID,23.779,INVALID,360.0,VALID,0.0,
2019-04-26, 09:49:06,VALID,916.317,VALID,0.0,VALID,88.859,VALID,326.89,VALID,23.856,INVALID,360.0,VALID,0.0,
2019-04-26, 09:50:06,VALID,916.305,VALID,0.0,VALID,87.404,VALID,331.194,VALID,23.905,INVALID,360.0,VALID,0.0,
2019-04-26, 09:51:06,VALID,916.297,VALID,0.0,VALID,87.842,VALID,334.378,VALID,23.843,INVALID,360.0,VALID,0.0,
2019-04-26, 09:52:06,VALID,916.302,VALID,0.0,VALID,88.098,VALID,338.017,VALID,23.662,INVALID,360.0,VALID,0.0,
2019-04-26, 09:53:06,VALID,916.311,VALID,0.0,VALID,89.851,VALID,339.539,VALID,23.492,INVALID,360.0,VALID,0.0,
2019-04-26, 09:54:06,VALID,916.308,VALID,0.0,VALID,90.019,VALID,339.672,VALID,23.431,INVALID,360.0,VALID,0.0,
2019-04-26, 09:55:06,VALID,916.313,VALID,0.0,VALID,90.046,VALID,344.385,VALID,23.518,INVALID,360.0,VALID,0.0,
2019-04-26, 09:56:06,VALID,916.292,VALID,0.0,VALID,90.231,VALID,345.053,VALID,23.687,INVALID,360.0,VALID,0.0,
2019-04-26, 09:57:06,VALID,916.292,VALID,0.0,VALID,88.996,VALID,346.098,VALID,23.925,INVALID,360.0,VALID,0.0,
2019-04-26, 09:58:06,VALID,916.312,VALID,0.0,VALID,87.99,VALID,348.704,VALID,24.124,INVALID,360.0,VALID,0.0,
2019-04-26, 09:59:06,VALID,916.303,VALID,0.0,VALID,86.081,VALID,352.308,VALID,24.249,INVALID,360.0,VALID,0.0,
2019-04-26, 10:00:06,VALID,916.321,VALID,0.0,VALID,86.242,VALID,355.433,VALID,24.261,INVALID,360.0,VALID,0.0,
2019-04-26, 10:01:06,VALID,916.339,VALID,0.0,VALID,85.537,VALID,359.878,VALID,24.294,INVALID,360.0,VALID,0.0,
2019-04-26, 10:02:06,VALID,916.351,VALID,0.0,VALID,86.157,VALID,364.816,VALID,24.341,INVALID,360.0,VALID,0.0,
2019-04-26, 10:03:06,VALID,916.371,VALID,0.0,VALID,85.986,VALID,368.801,VALID,24.222,INVALID,360.0,VALID,0.0,
2019-04-26, 10:04:06,VALID,916.388,VALID,0.0,VALID,87.152,VALID,374.019,VALID,24.112,INVALID,360.0,VALID,0.0,
2019-04-26, 10:05:06,VALID,916.39,VALID,0.0,VALID,87.118,VALID,385.12,VALID,24.054,INVALID,360.0,VALID,0.0,
2019-04-26, 10:06:06,VALID,916.413,VALID,0.0,VALID,88.302,VALID,402.511,VALID,23.951,INVALID,360.0,VALID,0.0,
2019-04-26, 10:07:06,VALID,916.438,VALID,0.0,VALID,89.466,VALID,434.534,VALID,23.951,INVALID,360.0,VALID,0.0,
2019-04-26, 10:08:06,VALID,916.451,VALID,0.0,VALID,87.483,VALID,462.412,VALID,23.705,INVALID,360.0,VALID,0.0,
2019-04-26, 10:09:06,VALID,916.477,VALID,0.0,VALID,89.216,VALID,502.043,VALID,23.372,INVALID,360.0,VALID,0.0,
2019-04-26, 10:10:06,VALID,916.489,VALID,0.0,VALID,90.813,VALID,567.934,VALID,23.182,INVALID,360.0,VALID,0.0,
2019-04-26, 10:11:06,VALID,916.497,VALID,0.0,VALID,91.276,VALID,575.716,VALID,23.078,INVALID,360.0,VALID,0.0,
2019-04-26, 10:12:06,VALID,916.486,VALID,0.0,VALID,91.917,VALID,506.386,VALID,23.11,INVALID,360.0,VALID,0.0,
2019-04-26, 10:13:06,VALID,916.518,VALID,0.0,VALID,91.571,VALID,635.84,VALID,23.249,INVALID,360.0,VALID,0.0,
2019-04-26, 10:14:06,VALID,916.502,VALID,0.0,VALID,90.704,VALID,585.66,VALID,23.32,INVALID,360.0,VALID,0.0,
2019-04-26, 10:15:06,VALID,916.495,VALID,0.0,VALID,91.219,VALID,543.147,VALID,23.261,INVALID,360.0,VALID,0.0,
2019-04-26, 10:16:06,VALID,916.51,VALID,0.0,VALID,90.713,VALID,488.562,VALID,23.265,INVALID,360.0,VALID,0.0,
2019-04-26, 10:17:06,VALID,916.507,VALID,0.0,VALID,91.047,VALID,514.117,VALID,23.308,INVALID,360.0,VALID,0.0,
2019-04-26, 10:18:06,VALID,916.523,VALID,0.0,VALID,90.477,VALID,411.294,VALID,23.411,INVALID,360.0,VALID,0.0,
2019-04-26, 10:19:06,VALID,916.539,VALID,0.0,VALID,89.713,VALID,357.776,VALID,23.447,INVALID,360.0,VALID,0.0,
2019-04-26, 10:20:06,VALID,916.546,VALID,0.0,VALID,89.229,VALID,345.576,VALID,23.459,INVALID,360.0,VALID,0.0,
2019-04-26, 10:21:06,VALID,916.567,VALID,0.0,VALID,88.178,VALID,388.605,VALID,23.398,INVALID,360.0,VALID,0.0,
2019-04-26, 10:22:06,VALID,916.56,VALID,0.0,VALID,88.686,VALID,482.59,VALID,23.458,INVALID,360.0,VALID,0.0,
2019-04-26, 10:23:06,VALID,916.606,VALID,0.0,VALID,88.598,VALID,505.717,VALID,23.606,INVALID,360.0,VALID,0.0,
2019-04-26, 10:24:06,VALID,916.614,VALID,0.0,VALID,88.076,VALID,438.537,VALID,23.709,INVALID,360.0,VALID,0.0,
2019-04-26, 10:25:06,VALID,916.625,VALID,0.0,VALID,89.278,VALID,407.037,VALID,23.827,INVALID,360.0,VALID,0.0,
2019-04-26, 10:26:06,VALID,916.641,VALID,0.0,VALID,87.628,VALID,397.992,VALID,23.864,INVALID,360.0,VALID,0.0,
2019-04-26, 10:27:06,VALID,916.658,VALID,0.0,VALID,88.155,VALID,406.622,VALID,23.853,INVALID,360.0,VALID,0.0,
2019-04-26, 10:28:06,VALID,916.684,VALID,0.0,VALID,87.569,VALID,393.675,VALID,23.854,INVALID,360.0,VALID,0.0,
2019-04-26, 10:29:06,VALID,916.706,VALID,0.0,VALID,87.921,VALID,380.798,VALID,23.905,INVALID,360.0,VALID,0.0,
2019-04-26, 10:30:06,VALID,916.729,VALID,0.0,VALID,86.483,VALID,359.072,VALID,24.022,INVALID,360.0,VALID,0.0,
2019-04-26, 10:31:06,VALID,916.737,VALID,0.0,VALID,85.35,VALID,342.684,VALID,24.106,INVALID,360.0,VALID,0.0,
2019-04-26, 10:32:06,VALID,916.78,VALID,0.0,VALID,86.046,VALID,335.849,VALID,24.144,INVALID,360.0,VALID,0.0,
2019-04-26, 10:33:06,VALID,916.798,VALID,0.0,VALID,84.222,VALID,331.806,VALID,24.116,INVALID,360.0,VALID,0.0,
2019-04-26, 10:34:06,VALID,916.808,VALID,0.0,VALID,84.673,VALID,333.088,VALID,23.974,INVALID,360.0,VALID,0.0,
2019-04-26, 10:35:06,VALID,916.816,VALID,0.0,VALID,85.516,VALID,337.763,VALID,23.802,INVALID,360.0,VALID,0.0,